[[{"header":{"parameterUnit":"m.s-1","parameterCategory":1,"la1":30.2991,"la2":30.254,"lo1":-89.0895,"lo2":-89.0444,"dy":0.0017,"dx":0.0017,"nx":28,"ny":28,"refTime":"2024-09-29T21:00:00:Z","depth":0,"parameterNumber":2,"parameterNumberName":"U-component_of_WINDS"},"data":[0,0,0,0,0,0,0,0,0,0,0,0,0,0,0,0,0,0,0,0,0,0,0,0,0,0,0,0,0,0,0,0,0,0,0,0,0,0,0,0,0,0,0,0,0,0,0,0,0,0,0,0,0,0,0,0,0,0,0.13,0.1302,0,0.1445,0.1447,0.1449,0.149,0.1489,0.1488,0.1488,0.1642,0.1647,0.1651,0,0,0,0,0,0,0,0,0,0,0,0,0,0.1063,0.1067,0.13,0.1302,0.1304,0.1445,0.1447,0.1449,0.149,0.1489,0.1488,0.1487,0.164,0.1646,0.1652,0,0,0,0,0,0,0,0,0,0,0,0,0,0.1183,0.1068,0.13,0.1341,0.1346,0.1445,0.1447,0.145,0.149,0.1489,0.1488,0.1487,0.1638,0.1645,0.1653,0.1722,0,0,0.1675,0.1678,0,0,0,0,0,0,0,0,0.1176,0.1192,0.1333,0.1338,0.1344,0.1448,0.142,0.1541,0.1491,0.1436,0.1487,0.1486,0.1579,0.1591,0.1621,0.1729,0.1736,0.1676,0.168,0.1683,0.1685,0,0,0,0,0,0,0,0.1168,0.1186,0.1358,0.1335,0.1342,0.1354,0.137,0.1443,0.1513,0.144,0.1444,0.146,0.1582,0.1614,0.1625,0.1738,0.1675,0.1682,0.1686,0.1689,0.1911,0.1913,0,0,0,0,0,0,0.1152,0.1178,0.1353,0.1362,0.1255,0.1359,0.1377,0.1416,0.1512,0.1525,0.1461,0.1461,0.1602,0.1616,0.1631,0.1718,0.1683,0.169,0.1694,0.191,0.1912,0.1913,0,0,0,0,0,0,0.1146,0.1167,0.1347,0.1271,0.1295,0.1364,0.1408,0.142,0.1452,0.1527,0.154,0.1481,0.1602,0.162,0.1699,0.1724,0.1693,0.17,0.1908,0.191,0.1912,0.1894,0,0,0,0,0,0,0.1139,0.1165,0.1191,0.1271,0.1299,0.1411,0.141,0.1423,0.1464,0.1466,0.1549,0.1562,0.1602,0.1688,0.1706,0.1734,0.1706,0.1906,0.1909,0.1912,0.1892,0.1895,0.1897,0,0,0,0,0,0.1131,0.1181,0.1192,0.1213,0.1332,0.1413,0.1429,0.1472,0.1465,0.1493,0.1541,0.1559,0.1718,0.1695,0.1716,0.1747,0.1905,0.1908,0.1911,0.1891,0.1895,0.1897,0,0,0,0,0,0,0.1104,0.1192,0.1205,0.1283,0.1339,0.1419,0.1455,0.1474,0.1536,0.1535,0.1588,0.1607,0.1681,0.1722,0.1695,0.1819,0.1812,0.182,0.1789,0.1793,0.1796,0.1784,0.1712,0,0,0,0,0,0.1106,0.1162,0.1237,0.1298,0.1326,0.1386,0.1422,0.145,0.1512,0.1537,0.1592,0.1652,0.1716,0.1757,0.182,0.1898,0.1918,0.193,0.1932,0.1934,0.194,0.1985,0.1991,0.1924,0.1924,0.1924,0,0,0.1113,0.1168,0.1201,0.1294,0.1342,0.14,0.1406,0.1467,0.1511,0.1547,0.1624,0.1666,0.1737,0.1816,0.1854,0.1852,0.1962,0.1938,0.1939,0.1944,0.1989,0.1995,0.2001,0.1927,0.1926,0.1926,0,0,0.1155,0.1202,0.1258,0.1305,0.1375,0.1415,0.1428,0.1505,0.1534,0.1611,0.1639,0.1693,0.1802,0.1851,0.1891,0.195,0.1969,0.1969,0.1983,0.2025,0.2031,0.2036,0.2057,0.2064,0.1975,0.1975,0.1975,0,0.1155,0.1242,0.1285,0.1344,0.1385,0.1418,0.1475,0.152,0.1608,0.1636,0.1633,0.1769,0.182,0.191,0.1924,0.1955,0.1973,0.196,0.2026,0.2031,0.2037,0.2058,0.2066,0.1975,0.1975,0.1975,0.1975,0,0.1238,0.1298,0.1335,0.1417,0.1462,0.1521,0.1574,0.1614,0.1639,0.1678,0.1757,0.1819,0.1894,0.1918,0.1943,0.2012,0.2009,0.2015,0.201,0.2042,0.2062,0.2071,0.1974,0.1974,0.1974,0.1975,0,0,0.1267,0.1372,0.1384,0.1422,0.1502,0.1551,0.1611,0.1683,0.1717,0.1777,0.1829,0.1919,0.1925,0.197,0.2001,0.2039,0.2082,0.2041,0.2043,0.2046,0.2162,0.2157,0.2165,0.2095,0.2096,0.2098,0.2156,0,0.1319,0.1426,0.1466,0.1555,0.1611,0.1643,0.1695,0.1751,0.179,0.1845,0.1888,0.1951,0.1954,0.1981,0.202,0.2068,0.2106,0.2065,0.2145,0.2148,0.2126,0.2176,0.2171,0.2223,0.2164,0.2166,0.2167,0,0.1394,0.1453,0.1546,0.1618,0.1644,0.169,0.1759,0.181,0.1875,0.19,0.1949,0.1978,0.2043,0.2033,0.2125,0.2096,0.2131,0.216,0.2163,0.2172,0.2159,0.2187,0.2241,0.2248,0.218,0.2179,0.2178,0,0.1406,0.1508,0.1577,0.1608,0.1695,0.1727,0.1765,0.1828,0.1868,0.1929,0.1956,0.2024,0.2062,0.2115,0.2161,0.2149,0.2249,0.2242,0.2273,0.2271,0.2293,0.2291,0.2352,0.2315,0.2315,0.2315,0.2315,0,0.146,0.1516,0.1583,0.1626,0.1689,0.1736,0.1798,0.1838,0.1894,0.1945,0.1978,0.2026,0.2084,0.2141,0.2178,0.2248,0.2265,0.2288,0.2297,0.2285,0.2282,0.2309,0.2307,0.2317,0.2316,0.2316,0.2316,0,0.1484,0.1532,0.1609,0.1684,0.1704,0.1748,0.1813,0.1856,0.1895,0.1961,0.1979,0.2042,0.2109,0.216,0.2249,0.2274,0.2348,0.2358,0.2326,0.2331,0.2358,0.2355,0.244,0.2453,0.2406,0.2407,0.2407,0,0.1515,0.1559,0.1638,0.1674,0.1711,0.1769,0.181,0.1857,0.1899,0.1974,0.2009,0.2078,0.2136,0.2243,0.2297,0.2365,0.2377,0.2402,0.2387,0.2374,0.2377,0.2374,0.2379,0.2404,0.2404,0.2404,0.2405,0,0.1566,0.1587,0.1643,0.1708,0.1756,0.181,0.1864,0.1892,0.195,0.1995,0.2063,0.2108,0.2197,0.2266,0.2339,0.238,0.2402,0.2408,0.2419,0.2407,0.2387,0.2398,0.2331,0.2406,0.2406,0.2406,0.2406,0.2406,0.1595,0.1634,0.1696,0.1758,0.1804,0.1854,0.1897,0.1942,0.1999,0.2074,0.2099,0.2169,0.2233,0.2333,0.2374,0.2431,0.2432,0.2447,0.2451,0.2454,0.2453,0.2377,0.2445,0.2445,0.2445,0.2445,0.2445,0,0.1647,0.1687,0.1744,0.1818,0.1867,0.1882,0.1943,0.1983,0.2044,0.2101,0.2156,0.2235,0.2302,0.2361,0.2431,0.2465,0.2477,0.2481,0.2479,0.2488,0.2449,0.2432,0.247,0.247,0.247,0.247,0.247,0.247,0.1679,0.1747,0.1775,0.1866,0.1907,0.1975,0.2009,0.2056,0.2101,0.2186,0.2241,0.2278,0.2336,0.241,0.2472,0.2488,0.2512,0.2514,0.2533,0.2495,0.2491,0.2488,0.2473,0.2519,0.2519,0.2568,0.2568,0.2569]},{"header":{"parameterUnit":"m.s-1","parameterCategory":1,"la1":30.2991,"la2":30.254,"lo1":-89.0895,"lo2":-89.0444,"dy":0.0017,"dx":0.0017,"nx":28,"ny":28,"refTime":"2024-09-29T21:00:00:Z","depth":0,"parameterNumber":3,"parameterNumberName":"V-component_of_WINDS"},"data":[0,0,0,0,0,0,0,0,0,0,0,0,0,0,0,0,0,0,0,0,0,0,0,0,0,0,0,0,0,0,0,0,0,0,0,0,0,0,0,0,0,0,0,0,0,0,0,0,0,0,0,0,0,0,0,0,0,0,1.2468,1.2468,0,1.2459,1.2459,1.2459,1.2371,1.2368,1.2366,1.2364,1.2358,1.236,1.2361,0,0,0,0,0,0,0,0,0,0,0,0,0,1.2408,1.241,1.2468,1.2468,1.2467,1.2459,1.2459,1.2459,1.2371,1.2368,1.2366,1.2363,1.2357,1.2359,1.2362,0,0,0,0,0,0,0,0,0,0,0,0,0,1.2421,1.2411,1.2468,1.2423,1.2418,1.2459,1.2459,1.2458,1.2372,1.2368,1.2365,1.2362,1.2356,1.2359,1.2362,1.2446,0,0,1.2371,1.2372,0,0,0,0,0,0,0,0,1.242,1.2423,1.2429,1.2426,1.2421,1.2412,1.2435,1.2454,1.2372,1.239,1.2364,1.236,1.2379,1.238,1.2385,1.2445,1.2445,1.2371,1.2373,1.2374,1.2375,0,0,0,0,0,0,0,1.2419,1.2423,1.2464,1.243,1.2425,1.2403,1.2401,1.2439,1.2403,1.2388,1.2381,1.2381,1.2376,1.2383,1.2384,1.2445,1.2371,1.2373,1.2375,1.2376,1.2567,1.257,0,0,0,0,0,0,1.2425,1.2423,1.2464,1.2464,1.2412,1.2406,1.2404,1.2419,1.2402,1.2396,1.2384,1.2377,1.2379,1.2381,1.2384,1.2476,1.2374,1.2376,1.2378,1.2563,1.2567,1.2571,0,0,0,0,0,0,1.2424,1.2429,1.2465,1.2441,1.2444,1.2411,1.2428,1.242,1.2427,1.2399,1.2393,1.2398,1.2377,1.238,1.2429,1.2474,1.2378,1.238,1.2559,1.2565,1.2569,1.2663,0,0,0,0,0,0,1.2422,1.2429,1.2461,1.2443,1.2446,1.2511,1.2431,1.2422,1.2431,1.2422,1.241,1.2405,1.2375,1.2425,1.2432,1.2476,1.2382,1.2555,1.2562,1.2568,1.2656,1.2671,1.2684,0,0,0,0,0,1.242,1.249,1.2463,1.2469,1.2485,1.2514,1.2515,1.2478,1.2436,1.2466,1.2448,1.2405,1.2469,1.2431,1.2438,1.2484,1.2552,1.256,1.2567,1.265,1.2668,1.2683,0,0,0,0,0,0,1.2517,1.2487,1.2457,1.2523,1.2521,1.2499,1.2537,1.25,1.2511,1.2502,1.2456,1.2454,1.2509,1.2502,1.2461,1.2561,1.2503,1.2512,1.2563,1.258,1.2594,1.2593,1.2385,0,0,0,0,0,1.2546,1.2571,1.2544,1.2604,1.2605,1.2571,1.2583,1.2553,1.255,1.255,1.2535,1.2534,1.2553,1.2567,1.2584,1.2655,1.2649,1.269,1.2704,1.2715,1.2723,1.2755,1.2771,1.2596,1.2596,1.2596,0,0,1.2606,1.2592,1.2612,1.2623,1.2619,1.2644,1.2571,1.2604,1.2622,1.2555,1.2598,1.2588,1.2584,1.2643,1.2669,1.2639,1.277,1.2725,1.2735,1.2736,1.2764,1.2781,1.2796,1.2601,1.26,1.2599,0,0,1.2727,1.2721,1.2768,1.2764,1.2756,1.2733,1.2744,1.2727,1.2716,1.276,1.2708,1.273,1.2765,1.2762,1.2766,1.2881,1.2841,1.2889,1.296,1.2991,1.3005,1.3017,1.3054,1.3068,1.2897,1.2897,1.2897,0,1.2802,1.2839,1.2797,1.2831,1.2836,1.2774,1.2819,1.2818,1.2818,1.2822,1.2789,1.2828,1.2822,1.2876,1.2904,1.2911,1.2919,1.2888,1.3007,1.3018,1.3029,1.3063,1.3077,1.2902,1.2902,1.2901,1.2901,0,1.2929,1.2956,1.2994,1.2992,1.3001,1.3042,1.3005,1.302,1.2989,1.2969,1.3011,1.3001,1.3011,1.3023,1.2996,1.3073,1.3054,1.3015,1.2954,1.3051,1.3082,1.3096,1.291,1.2908,1.2907,1.2905,0,0,1.3111,1.3082,1.3096,1.3092,1.3078,1.3097,1.3134,1.3142,1.3153,1.3155,1.3182,1.3211,1.3173,1.3177,1.3148,1.3176,1.3262,1.3132,1.3131,1.3153,1.3341,1.3367,1.3384,1.3236,1.3239,1.3241,1.3339,0,1.3223,1.3281,1.3243,1.3307,1.3328,1.3268,1.3299,1.3293,1.3275,1.329,1.327,1.3289,1.324,1.3241,1.3267,1.3246,1.3298,1.3239,1.3258,1.3259,1.3256,1.3401,1.343,1.3524,1.3352,1.3354,1.3356,0,1.3362,1.3366,1.3431,1.3407,1.3415,1.3443,1.3445,1.3461,1.3453,1.3437,1.3439,1.3402,1.3433,1.3376,1.3418,1.3378,1.3383,1.3374,1.3377,1.3374,1.3311,1.3397,1.3553,1.3566,1.3375,1.3374,1.3372,0,1.3482,1.3504,1.3543,1.3543,1.3518,1.3538,1.3529,1.3517,1.3523,1.3525,1.3528,1.3535,1.3538,1.3544,1.3509,1.3471,1.3553,1.3494,1.3538,1.3539,1.3555,1.3554,1.371,1.3567,1.3566,1.3566,1.3566,0,1.3608,1.365,1.3596,1.362,1.3663,1.3619,1.3663,1.3647,1.3636,1.3655,1.3607,1.3626,1.358,1.3594,1.3567,1.3602,1.3606,1.3592,1.3583,1.3594,1.3595,1.3594,1.3585,1.357,1.3569,1.3568,1.3568,0,1.3748,1.3714,1.3753,1.3725,1.3719,1.3752,1.3727,1.3748,1.3726,1.375,1.3754,1.3718,1.3732,1.3698,1.3708,1.3689,1.3738,1.3722,1.374,1.3734,1.3777,1.3772,1.3935,1.3952,1.3802,1.3804,1.3805,0,1.3829,1.3858,1.3832,1.3841,1.3833,1.3849,1.3853,1.381,1.3817,1.3807,1.3828,1.3837,1.3841,1.3866,1.384,1.3846,1.3827,1.3883,1.3827,1.3835,1.3821,1.3818,1.3819,1.3894,1.3896,1.3897,1.3899,0,1.3975,1.3955,1.3963,1.3964,1.397,1.397,1.3966,1.3976,1.393,1.394,1.3951,1.3955,1.3962,1.397,1.397,1.396,1.392,1.3917,1.3926,1.3935,1.3942,1.3934,1.3767,1.3912,1.3911,1.391,1.3909,1.3909,1.4084,1.4105,1.4088,1.4097,1.4089,1.4086,1.4102,1.408,1.4089,1.409,1.4065,1.4081,1.4068,1.4062,1.4056,1.4067,1.4041,1.4057,1.406,1.4063,1.4068,1.3944,1.4068,1.4067,1.4067,1.4067,1.4066,0,1.4222,1.4208,1.4217,1.421,1.4217,1.4179,1.4172,1.4179,1.4194,1.4184,1.4189,1.42,1.4207,1.4182,1.4185,1.4198,1.418,1.42,1.4196,1.4194,1.4094,1.4083,1.4214,1.4214,1.4214,1.4214,1.4214,1.4214,1.4294,1.4326,1.4305,1.4331,1.4317,1.433,1.4329,1.4324,1.4316,1.433,1.4335,1.4318,1.4301,1.4301,1.4305,1.4297,1.4299,1.4324,1.431,1.4216,1.4201,1.4188,1.4177,1.4326,1.4326,1.4408,1.4409,1.4409]}]]